FENGYUN 1C DEB

Satellite information

Favourite Embed

Satellite Type and Status

DEBRISIN ORBIT

Key statistics

Satellite FENGYUN 1C DEB at a glance.

Uptime

9556

Days in orbit

Revolutions

≈ 14.9

Per day

Orbit

SSO

Sun Synchronous Orbit

Inclination

98.8

Latest

Satellite identification and parameters

Extended collection of information and parameters for FENGYUN 1C DEB.

Object identification

Identified? True

Debris? True

Object name: FENGYUN 1C DEB

International designator: 1999-025DVA

Object number (NORAD): 36225

Object ID (CCSDS): 36225

Country: PEOPLES REPUBLIC OF CHINA (PRC)

Current information (Y/N): Y

RCS size: SMALL

Orbital parameters

Period: 96.356 minutes

Inclination: 98.8187 deg

SMA: 6962.203 km

Apoapsis: 624.114 km

Periapsis: 544.022 km

RAAN: 284.738 deg

Eccentricy: 0.0057519

Argument of periapsis: 100.0448 deg

Mean anomaly: 260.7266 deg

Mean motion: 14.94454586 rev/day

Mean motion (dot): 0.00018048 rev/day2

B* drag term: 0.0016228 1/REarth

Two-line elements (TLE)

Creation date: July 3, 2025, 5:26 p.m.

Reference frame: TEME

Reference center: EARTH

Epoch: July 3, 2025, 12:51 p.m. UTC

TLE line 0: 0 FENGYUN 1C DEB

TLE line 1: 1 36225U 99025DVA 25184.53576123 .00018048 00000-0 16228-2 0 9997

TLE line 2: 2 36225 98.8187 284.7380 0057519 100.0448 260.7266 14.94454586643425

Live tracking on map

Real-time ground track for satellite FENGYUN 1C DEB.

In-orbit conjunctions

A list of the most updated potential collisions computed for object FENGYUN 1C DEB.

Target Orbit TCA Probability of collision Miss distance Type
CZ-2C DEB SSO 2024-11-09 17:28:14 0.0001207649 922.0 (m) DEBRIS

Associated space launch

Chinese polar orbiting meteorological satellite

FENGYUN 1C DEB was lifted into orbit during the mission ‘Long March 4B | Feng Yun 1C’, on board a Long March 4B space rocket.

The launch took place on May 10, 1999, 1:33 a.m. from Launch Complex 7.

For more information about the launch, click the button.

Launch to space Long March 4B | Feng Yun 1C
Long March 4B | Feng Yun 1C

Agency: N/A

Status: Launch Successful

Launch date: May 10, 1999, 1:33 a.m. UTC

Rocket: Long March 4B

Launch pad: Launch Complex 7

Location: Taiyuan Satellite Launch Center, People's Republic of China

...

Latest news about this satellite

There are no fresh news available about this satellite. Check back as we update our databases every day.


Newsletter sign-up

Weekly statistics, charts and insights to help you stay on top of the space industry.